www.pogodaiklimat.ru

Погода и климат >> Архив погоды >> Индия >> Мадхья-Прадеш >> Гуна


ПОГОДА в Гуне

  • Прогноз погоды в Гуне
  • Монитор погоды в Гуне

АРХИВ ПОГОДЫ в Гуне

Время (UTC), дата Ветер
(напр.,м/с)
 
Видим.   Явления Облачность Т
(С)
Тd
(С)
f
(%)
Тe
(С)
Тes
(С)
Комфортность P
(гПа)
Po
(гПа)
Тmin
(С)
Tmax
(С)
R
(мм)
R24
(мм)
S
(см)
03 17.07 ЮЗ 1 4000 м 4/0
[Ac trans]
+29.4 +22.3 66 +38 +46 очень
душно
1001.9 949.2 +25.3
06 17.07 СЗ 1 4000 м 5/0
[Ac trans]
+34.8 +23.3 51 +45 +63 опасность
перегрева
1001.1 949.4
09 17.07 СЗ 1 4000 м 5/0
[Ac trans]
+36.4 +21.1 41 +43 +57 опасность
перегрева
999.2 947.8
12 17.07 В 1 4000 м 5/0
[Ac trans]
+35.2 +21.8 46 +43 +45 опасность
перегрева
997.3 945.8 +36.6
15 17.07 СЗ 1 4000 м 5/0
[Ac trans]
+32.2 +21.6 54 +41 +41 опасность
перегрева
998.7 946.7
18 17.07 штиль 0 4000 м 5/0
[Ac trans]
+30.0 +22.0 62 +39 +39 очень
душно
1001.0 948.5
21 17.07 СЗ 1 4000 м 5/0
[Ci sp]
+29.0 +21.6 64 +37 +37 очень
душно
1000.6 947.9
00 18.07 штиль 0 4000 м 3/0
[Ci sp]
+27.2 +21.5 71 +35 +35 очень
душно
1000.8 947.8
03 18.07 З 1 4000 м 3/0
[Ci sp]
+29.4 +22.3 66 +38 +47 очень
душно
1001.5 948.9 +25.6
06 18.07 З 1 4000 м 5/0
[Ac trans]
+34.8 +22.0 47 +43 +60 опасность
перегрева
1000.8 949.1
09 18.07 СЗ 2 4000 м 5/0
[Ac trans]
+36.4 +21.1 41 +43 +55 опасность
перегрева
998.1 946.8
12 18.07 СЗ 1 4000 м 5/0
[Ac trans]
+36.6 +21.0 40 +43 +45 опасность
перегрева
996.1 944.9 +37.2
15 18.07 СЗ 1 4000 м 5/0
[Ac trans]
+30.8 +21.3 57 +39 +39 очень
душно
998.3 946.1
18 18.07 штиль 0 4000 м 5/0
[Ci sp]
+29.0 +22.5 68 +38 +38 очень
душно
1000.6 947.9
21 18.07 СЗ 1 4000 м 4/0
[Ci sp]
+28.0 +22.4 72 +37 +37 очень
душно
999.7 946.9
00 19.07 штиль 0 4000 м 5/0
[Ac lent]
+27.0 +22.6 77 +36 +36 очень
душно
1000.3 947.3
03 19.07 штиль 0 4000 м 1/0
[Ci sp]
+29.8 +23.1 67 +40 +50 очень
душно
1001.0 948.5 +24.8
06 19.07 СЗ 1 4000 м 5/0
[Ac trans]
+34.8 +19.4 40 +40 +57 опасность
солнечного
удара
1000.6 948.9
09 19.07 СЗ 1 4000 м 5/0
[Ac trans]
+37.6 +21.9 40 +45 +59 опасность
перегрева
997.1 946.0
12 19.07 СЗ 1 4000 м 5/0
[Ac trans]
+36.6 +21.7 42 +44 +46 опасность
перегрева
998.2 946.9 +37.8
15 19.07 СЗ 1 2000 м дождь {гроза} 10/5 600 м
[Sc As op]
+26.2 +24.2 89 +36 +36 очень
душно
1001.3 948.1 3
18 19.07 СЗ 1 4000 м в посл. час снег {дождь} 5/0 600 м
[Ac trans]
+25.6 +23.6 89 +35 +35 очень
душно
1001.7 948.4 4
21 19.07 В 1 4000 м 5/0 600 м
[Ac trans]
+25.0 +23.5 91 +34 +34 очень
душно
1000.8 947.4 4
00 20.07 штиль 0 4000 м 5/0
[Ac trans Ci sp]
+25.6 +24.1 91 +35 +35 очень
душно
1000.8 947.5 4
03 20.07 штиль 0 4000 м 3/0
[Ac trans]
+28.6 +24.3 78 +40 +49 очень
душно
1001.8 949.0 +23.8 4
06 20.07 СЗ 1 4000 м 5/0
[Ac trans]
+33.8 +33.8 100 +78 +95 опасность
перегрева
1001.1 949.2
09 20.07 В 3 4000 м 8/8 600 м
[Sc]
+33.6 +23.9 57 +45 +48 опасность
перегрева
998.7 946.9
12 20.07 СЗ 1 4000 м 8/3 600 м
[Sc Ac trans]
+31.8 +22.5 58 +41 +42 опасность
перегрева
997.9 945.9 +36.4
15 20.07 СЗ 1 4000 м 5/0
[Ac trans]
+30.8 +23.6 66 +42 +42 опасность
перегрева
998.4 946.2
18 20.07 В 1 4000 м 5/0
[Ac trans]
+28.6 +24.3 78 +40 +40 очень
душно
999.8 947.1
21 20.07 штиль 0 4000 м 5/0
[Ci sp]
+28.0 +24.3 80 +39 +39 очень
душно
999.7 946.9
00 21.07 штиль 0 4000 м 3/0
[Ci sp]
+27.4 +23.6 80 +37 +37 очень
душно
999.9 947.0
03 21.07 ЮВ 1 4000 м ясно +30.6 +24.6 70 +43 +52 опасность
перегрева
1000.8 948.4 +25.8
06 21.07 В 1 4000 м 4/0
[Ac trans]
+34.4 +23.8 54 +46 +65 опасность
перегрева
999.5 947.8
09 21.07 СЗ 1 4000 м 5/0
[Ac trans]
+37.0 +22.6 44 +46 +60 опасность
перегрева
996.9 945.8
12 21.07 СЗ 1 4000 м 4/0
[Ac trans]
+37.2 +20.7 38 +43 +45 опасность
перегрева
994.4 943.4 +38.0
15 21.07 СЗ 3 4000 м зарница 8/5 600 м
[Cb cap Ac trans]
+31.4 +22.0 57 +40 +40 очень
душно
998.6 946.4
18 21.07 СЗ 1 4000 м {морось} 8/4 600 м
[Sc Ac trans]
+27.2 +23.4 80 +37 +37 очень
душно
999.7 946.8 0.0
21 21.07 СЗ 1 4000 м 8/4 600 м
[Sc Ac trans]
+26.4 +22.9 81 +35 +35 очень
душно
999.8 946.7 0.0
00 22.07 штиль 0 4000 м 5/3 600 м
[Sc Ac trans]
+26.6 +24.3 87 +37 +37 очень
душно
1000.0 947.0 0.0
03 22.07 Ю 1 4000 м 4/0
[Ci sp]
+30.4 +24.1 69 +42 +51 опасность
перегрева
1000.5 948.1 +25.6 0.0
06 22.07 СЗ 1 4000 м 8/4 600 м
[Sc Ac trans]
+33.0 +24.2 60 +45 +54 опасность
перегрева
1000.6 948.6
09 22.07 СЗ 2 4000 м 5/0
[Ac trans]
+36.4 +23.2 47 +47 +58 опасность
перегрева
998.3 947.0
12 22.07 ЮВ 2 4000 м 8/3 750 м
[Cu med, cong Ci sp]
+36.2 +23.0 47 +46 +48 опасность
перегрева
995.2 944.0 +36.9
15 22.07 В 1 4000 м 5/0
[Ac trans]
+33.0 +24.2 60 +45 +45 опасность
перегрева
998.4 946.5
18 22.07 штиль 0 4000 м 4/0
[Ci sp]
+31.4 +24.9 68 +45 +45 опасность
перегрева
998.0 945.9
21 22.07 штиль 0 4000 м 5/0
[Ac trans]
+30.0 +24.3 72 +42 +42 опасность
перегрева
998.7 946.3
00 23.07 штиль 0 4000 м 3/0
[Ac trans]
+29.4 +23.6 71 +40 +40 очень
душно
999.0 946.5
03 23.07 ЮЗ 1 4000 м 4/0
[Ci sp]
+32.4 +24.1 62 +45 +53 опасность
перегрева
1000.1 948.0 +27.1
06 23.07 СЗ 1 4000 м 5/0
[Ac trans]
+36.2 +23.3 48 +47 +64 опасность
перегрева
998.8 947.4
09 23.07 СЗ 1 4000 м 5/0
[Ac trans]
+37.6 +22.3 41 +46 +59 опасность
перегрева
996.5 945.5
12 23.07 ЮЗ 1 4000 м 9/4 600 м
[Sc As op Ci sp]
+35.2 +22.5 48 +44 +45 опасность
перегрева
995.3 943.9 +37.6
15 23.07 СЗ 1 4000 м 5/0
[Ci sp]
+33.6 +23.9 57 +45 +45 опасность
перегрева
997.6 945.9
18 23.07 СЗ 1 4000 м 5/0
[Ci sp]
+31.6 +24.8 67 +45 +45 опасность
перегрева
998.6 946.5
21 23.07 штиль 0 4000 м 5/0
[Ci sp]
+30.2 +24.2 70 +42 +42 опасность
перегрева
997.9 945.6

 

Местоположение метеостанции Гуна (Мадхья-Прадеш, Индия): широта 24.65 долгота 77.32 высота над уровнем моря 478 м.

В архиве по умолчанию представлена погода в Гуне за последнюю неделю. Архивные данные за месяц целиком и за предыдущие месяцы, начиная с января 2011 года, Вы можете получить, выбрав интересующий диапазон дат из раскрывающегося списка и нажав кнопку "Ввод!".


*Определитесь, кто Вы:
робот инопланетянин человек

Внимание! Время в таблицах - всемирное. Для получения местного времени необходимо прибавить поправку, которая равна 5.5 ч.

Смотрите также архив погоды в соседних городах и на ближайших метеорологических станциях:

Погода в Шивпури (Мадхья-Прадеш, Индия) (83 км)
Погода в Раджгархе (Мадхья-Прадеш, Индия) (94 км)
Погода в Шеопуре (Мадхья-Прадеш, Индия) (130 км)
Погода в Бхопале (Мадхья-Прадеш, Индия) (152 км)
Погода в Тикамгархе (Мадхья-Прадеш, Индия) (153 км)
Погода в Райсене (Мадхья-Прадеш, Индия) (157 км)
Погода в Джханси (Уттар-Прадеш, Индия) (158 км)
Погода в Коте (Раджастхан, Индия) (158 км)
Погода в Шаджапуре (Мадхья-Прадеш, Индия) (170 км)
Погода в Сагаре (Мадхья-Прадеш, Индия) (170 км)

Пояснения к столбцам:

Ветер - указаны скорость ветра в м/с - средняя за 10 мин, порывы в срок и между сроками (в фигурных скобках) и направление, откуда дует ветер: С - северный, СВ - северо-восточный, В - восточный, ЮВ - юго-восточный, Ю - южный, ЮЗ - юго-западный, З - западный, СЗ - северо-западный.
Видимость - горизонтальная дальность видимости в метрах или километрах. При видимости от 1 до 10 км при отсутствии осадков обычно наблюдается дымка, при ухудшении видимости до 1 км и менее - туман. В сухую погоду видимость может ухудшаться дымом, пылью или мглою.
Явления - указаны атмосферные явления, наблюдавшиеся в срок или в последний час перед сроком; фигурными скобками обозначены явления, наблюдавшиеся между сроками (за 1-3 часа до срока); квадратными скобками обозначены град или гололедные отложения с указанием их диаметра в мм.
Облачность - указаны через наклонную черту общая и нижняя облачность в баллах и высота нижней границы облаков в метрах; квадратными скобками обозначены формы облаков: Ci - перистые, Cs - перисто-слоистые, Cc - перисто-кучевые, Ac - высококучевые, As - высокослоистые, Sc - слоисто-кучевые, Ns - слоисто-дождевые, Cu - кучевые, Cb - кучево-дождевые. Подробнее классификацию облаков см. в Атласе облаков (PDF).
T - Температура воздуха - температура, измеренная на высоте 2 м над землей.
Td - Температура точки росы - температура, при понижении до которой содержащийся в воздухе водяной пар достигнет насыщения.
f - Относительная влажность воздуха - влажноcть воздуха, измеренная на высоте 2 м над землей.
Te - Эффективная температура - температура, которую ощущает одетый по сезону человек в тени. Характеристика душности погоды. При расчете учитывается влияние влажности воздуха и скорости ветра на теплоощущения человека.
Tes - Эффективная температура на солнце - температура, которую ощущает человек, с поправкой на солнечный нагрев. Характеристика знойности погоды. Зависит от высоты солнца над горизонтом, облачности и скорости ветра. Ночью, в пасмурную погоду, а также при ветре 12 м/с и более поправка равна нулю.
P - Атмосферное давление - приведенное к уровню моря атмосферное давление.
Po - Атмосферное давление - измеренное на уровне метеостанции атмосферное давление.
Tmin - Минимальная температура - минимум температуры воздуха на высоте 2 м над землей.
Tmax - Максимальная температура - максимум температуры воздуха на высоте 2 м над землей.
R - Количество осадков - Количество выпавших осадков за период времени, мм. При наведении курсора мыши на число - период времени, за который выпало указанное количество осадков.
R24 - Количество осадков - Количество выпавших осадков за 24 часа, мм.
S - Снежный покров - Высота снежного покрова, см. При наведении курсора мыши на число - состояние снежного покрова и степень покрытия местности в баллах.